Regional Weather Roundup
Issued by NWS

Home | Current Version | Previous Version | Graphics & Text | Print | Product List | Glossary On
Versions: 1 2 3 4 5 6 7 8 9 10 11 12 13 14 15 16 17 18 19 20 21 22 23 24 25 26 27 28 29 30 31 32 33 34 35 36 37 38 39 40 41 42 43 44 45 46 47 48 49 50
000
ASUS43 KOAX 241310
RWRNE

WEATHER ROUNDUP FOR NEBRASKA
NATIONAL WEATHER SERVICE OMAHA NE
800 AM CDT MON JUL 24 2017

NOTES: SATELLITE DATA IS BEING USED TO AUGMENT CLOUD COVER ABOVE
       12000 FEET.
       "FAIR" INDICATES FEW OR NO CLOUDS BELOW 12,000 FEET WITH NO
       SIGNIFICANT WEATHER AND/OR OBSTRUCTIONS TO VISIBILITY.


NEZ001>004-019>022-054>056-241400-
NEBRASKA PANHANDLE

CITY           SKY/WX    TMP DP  RH WIND       PRES   REMARKS
SCOTTSBLUFF    MOSUNNY   78  57  48 S8        29.98R
ALLIANCE       SUNNY     73  58  59 SW13      29.99S
CHADRON        MOSUNNY   69  53  56 N3        29.92S
GORDON         FAIR      66  59  78 CALM      29.97R
KIMBALL        SUNNY     66  60  81 S9        30.07F
SIDNEY         SUNNY     72  60  66 SW13      30.05S
$$

NEZ057>060-069>072-079>082-241400-
SOUTHWEST NEBRASKA

CITY           SKY/WX    TMP DP  RH WIND       PRES   REMARKS
NORTH PLATTE   SUNNY     67  65  93 E7        30.02S
IMPERIAL       SUNNY     70  58  65 S8        30.03S
LEXINGTON      SUNNY     69  63  81 SE8       30.04S
MCCOOK         MOSUNNY   66  66 100 NE3       30.03R FOG
OGALLALA       SUNNY     64  57  76 CALM      30.03S
$$

NEZ005>010-023>029-035>040-094-241400-
NORTH CENTRAL NEBRASKA

CITY           SKY/WX    TMP DP  RH WIND       PRES   REMARKS
VALENTINE      SUNNY     69  59  70 S12       29.98S
AINSWORTH      SUNNY     67  60  78 S14       29.99F
BROKEN BOW     SUNNY     65  61  87 SE8       30.03S
O`NEILL        SUNNY     65  62  91 S7        30.03R
ORD            SUNNY     67  59  75 SE8       30.02R
THEDFORD       SUNNY     69  64  82 S15       30.02S
$$

NEZ041-046>049-061>064-073>077-083>087-241400-
SOUTH CENTRAL NEBRASKA

CITY           SKY/WX    TMP DP  RH WIND       PRES   REMARKS
GRAND ISLAND   SUNNY     68  63  84 SE12      30.04R
AURORA         SUNNY     65  64  94 SE8       30.04S
HASTINGS       SUNNY     69  61  75 SE12      30.05R
HEBRON         SUNNY     69  64  85 SE3       30.03S
HOLDREGE       MOSUNNY   67  62  84 SE7       30.04S
KEARNEY        MOSUNNY   68  63  84 SE8       30.04S
YORK           SUNNY     66  63  88 SE6       30.04S
$$

NEZ011>018-030>034-042>045-241400-
NORTHEAST NEBRASKA

CITY           SKY/WX    TMP DP  RH WIND       PRES   REMARKS
NORFOLK        MOSUNNY   64  59  83 E6        30.04S
ALBION         SUNNY     65  62  88 SE6       30.03S
BLAIR          MOSUNNY   66  62  86 NE5       30.04S
COLUMBUS       SUNNY     65  62  90 E7        30.05R
FREMONT        MOSUNNY   66  60  81 E3        30.05R
TEKAMAH        SUNNY     64  60  87 CALM      30.04S
WAYNE          MOSUNNY   61  61  99 CALM      30.04S
$$

NEZ050>053-065>068-078-088>093-241400-
SOUTHEAST NEBRASKA

CITY           SKY/WX    TMP DP  RH WIND       PRES   REMARKS
LINCOLN        SUNNY     68  62  81 E5        30.04S
OMAHA EPPLEY   MOSUNNY   67  60  78 N3        30.04R
BEATRICE       SUNNY     68  63  85 E5        30.03S
FALLS CITY     SUNNY     68  63  84 NE3       30.02R
NEBRASKA CITY  SUNNY     67  66  99 CALM      30.04S
PLATTSMOUTH    SUNNY     66  62  86 CALM      30.04S
$$

NEZ044-045-051>053-067-241400-
OMAHA AREA

CITY           SKY/WX    TMP DP  RH WIND       PRES   REMARKS
OMAHA EPPLEY   MOSUNNY   67  60  78 N3        30.04R
BLAIR          MOSUNNY   66  62  86 NE5       30.04S
FREMONT        MOSUNNY   66  60  81 E3        30.05R
MILLARD        PTSUNNY   71  63  75 SE3       30.04R
OFFUTT AFB     SUNNY     68  61  78 E6        30.03S
PLATTSMOUTH    SUNNY     66  62  86 CALM      30.04S
WAHOO          FAIR      64  62  94 CALM      30.04S
$$



USA.gov is the U.S. government's official web portal to all federal, state and local government web resources and services.